Flag for Austria Weather past 2 weeks in St. Pölten, Lower Austria, Austria

Now
36 °F

Passing clouds.


Feels Like: 28 °F
Forecast: 29 / 37 °F
Wind: 10 mph from Southeast

Location: Tulln Airport

Current Time: Jan 29, 2015 at 1:22:46 AM

Latest Report: Jan 28, 2015 at 9:50 PM


Visibility: 15 mi

Pressure: 29.74 "Hg

Humidity: 65%

Dew point: 25 °F

Location of St. PöltenLocation

Historic Weather in St. Pölten — Graph

°F

St. Pölten temperature yesterday

Maximum temperature yesterday: 41 °F (at 1:50 PM)
Minimum temperature yesterday: 32 °F (at 5:50 PM)
Average temperature yesterday: 36 °F

Past Weeks' High & Low Weather Summary

 TemperatureHumidityPressure
High50 °F (Jan 14, 2:50 PM)100% (Jan 14, 4:50 AM)30.30 "Hg (Jan 14, 4:50 AM)
Low27 °F (Jan 14, 4:50 AM)58% (Jan 14, 2:50 PM)29.74 "Hg (Jan 17, 4:50 AM)
Average37 °F85%30.00 "Hg
* Reported Jan 13 9:50 PM — Jan 28 9:50 PM, St. Pölten, Weather by CustomWeather, © 2014

Note: Actual official high and low records may vary slightly from our data, if they occured in-between our weather recording intervals... More about our weather records

Advertising

St. Pölten weather history for previous 24 hours

 ConditionsComfort  
Time TempWeatherWind HumidityBarometerVisibility
9:50 PM
Jan 28
36 °FPassing clouds.10 mph65%29.74 "Hg16 mi
8:50 PM34 °FPassing clouds.13 mph70%29.80 "Hg19 mi
7:50 PM34 °FPassing clouds.8 mph81%29.83 "Hg19 mi
5:50 PM32 °FPassing clouds.7 mph87%29.92 "Hg25 mi
4:50 PM36 °FPassing clouds.7 mph81%29.92 "Hg25 mi
3:50 PM39 °FPartly sunny.18 mph70%29.95 "Hg22 mi
2:50 PM39 °FPartly sunny.16 mph75%29.95 "Hg19 mi
1:50 PM41 °FScattered clouds.18 mph70%29.98 "Hg11 mi
12:50 PM39 °FPartly sunny.18 mph75%30.01 "Hg11 mi
11:50 AM39 °FPartly sunny.16 mph75%30.04 "Hg9 mi
10:50 AM39 °FPartly sunny.15 mph75%30.07 "Hg9 mi
9:50 AM37 °FScattered clouds.15 mph81%30.07 "Hg9 mi
8:50 AM36 °FPartly sunny.13 mph87%30.07 "Hg7 mi
7:50 AM34 °FBroken clouds.12 mph87%30.07 "Hg6 mi
6:50 AM34 °FPassing clouds.13 mph87%30.07 "Hg6 mi
5:50 AM34 °FPassing clouds.12 mph87%30.07 "Hg6 mi
4:50 AM34 °FPassing clouds.12 mph87%30.07 "Hg6 mi
Weather by CustomWeather, © 2014

See weather overviewHow to use our weather pages